Regional Weather Roundup
Issued by NWS

Home | Current Version | Previous Version | Graphics & Text | Print | Product List | Glossary On
Versions: 1 2 3 4 5 6 7 8 9 10 11 12 13 14 15 16 17 18 19 20 21 22 23 24 25 26 27 28 29 30 31 32 33 34 35 36 37 38 39 40 41 42 43 44 45 46 47 48 49 50
000
ASUS43 KLMK 061210
RWRKY
KENTUCKY REGIONAL WEATHER ROUNDUP
NATIONAL WEATHER SERVICE LOUISVILLE KY
800 AM EDT MON JUL 06 2015

NOTE "FAIR" INDICATES FEW OR NO CLOUDS BELOW 12,000 FEET
WITH NO SIGNIFICANT WEATHER AND/OR OBSTRUCTIONS TO VISIBILITY.

KYZ001>023-026-027-061>063-070>075-061300-
WESTERN AND SOUTH CENTRAL KENTUCKY

CITY           SKY/WX    TMP DP  RH WIND       PRES   REMARKS
PADUCAH        FOG       72  71  97 CALM      30.08S VSB 1
HENDERSON      SUNNY     72  66  83 CALM      30.08R
OWENSBORO      SUNNY     71  69  93 SE5       30.09S FOG
HOPKINSVILLE   PTSUNNY   72  70  95 S6        30.12R
BOWLING GREEN  SUNNY     70  68  93 CALM      30.12S FOG
GLASGOW        FOG       67  67 100 CALM      30.12F VSB 1
$$

KYZ024-025-028>034-038-045-046-053-061300-
NORTH CENTRAL KENTUCKY

CITY           SKY/WX    TMP DP  RH WIND       PRES   REMARKS
LOUISVILLE/SDF CLOUDY    68  65  90 CALM      30.10S FOG
LOUISVILLE/LOU SUNNY     67  64  90 CALM      30.11S FOG
FORT KNOX      SUNNY     67  66  97 CALM      30.09F FOG
$$

KYZ035>037-039>044-047>052-055>060-089>105-061300-
NORTHEAST KENTUCKY

CITY           SKY/WX    TMP DP  RH WIND       PRES   REMARKS
LEXINGTON      MOSUNNY   67  65  93 S3        30.13R FOG
COVINGTON      SUNNY     64  62  93 CALM      30.11R
FRANKFORT      MOSUNNY   64  62  93 CALM      30.11R FOG
$$

KYZ054-064>069-076>088-106>120-061300-
SOUTHEAST KENTUCKY

CITY           SKY/WX    TMP DP  RH WIND       PRES   REMARKS
JACKSON        FOG       67  65  93 CALM      30.15R VSB 1/4
LONDON         CLOUDY    67  64  90 CALM      30.15R
SOMERSET       FOG       66  66 100 CALM      30.15S VSB<1/4
MIDDLESBORO    FOG       64  64 100 CALM      30.17R VSB 1/2
MONTICELLO     PTSUNNY   66  66 100 CALM      30.17R FOG
$$




USA.gov is the U.S. government's official web portal to all federal, state and local government web resources and services.